Location: *
(46.1833°N, 22.7667°E)
Time: 00:49:31
(UTC+00:00)

Cosmos 2333 Rocket - Pass Details

Date: 17 September 2019
Orbit: 840 x 862 km, 70.8° (Epoch: 12 October)

Event Time Altitude Azimuth Distance (km) Brightness Sun altitude
Rises 18:01:12 0° 330° (NNW) 3,421 6.2 -15.0°
Reaches altitude 10° 18:03:40 10° 328° (NNW) 2,485 5.4 -15.4°
Maximum altitude 18:09:18 65° 248° (WSW) 937 2.6 -16.3°
Drops below altitude 10° 18:14:57 10° 168° (SSE) 2,483 4.3 -17.2°
Enters shadow 18:15:11 - 167° (SSE) 2,574 4.4 -17.3°
